sat.trackr.live / text

‹ back to catalog

COSMO-SKYMED 2

NORAD 32376 · 2007-059A

PAYLOAD ACTIVE UNKNOWN

§ Identity

Operator
Country
IT
Launch date
2007-12-09
Launch site
AFWTR
Launch vehicle
Mass (kg)
RCS (m²)
5.57

Purposes: earth_obs

External: N2YO · Heavens-Above · Gunter

§ Orbital elements

Epoch: 2026-05-25T03:21:31.044096Z

Period
97.16 min
Inclination
97.8885°
Eccentricity
0.0001493
Mean motion
14.82148579 rev/d
Perigee alt
621.5 km
Apogee alt
623.6 km
Semi-major
7,000.7 km
B*
3.5283e-5
RAAN
329.0727°
Arg perigee
87.8911°
Mean anomaly
272.2473°
Rev number
99,858

§ Raw data

COSMO-SKYMED 21 32376U 07059A   26145.13994264  .00000229  00000+0  35283-4 0  99952 32376  97.8885 329.0727 0001493  87.8911 272.2473 14.82148579998584

JSON: /api/v1/satellites/32376 · /tle

For live sub-satellite position, see the globe view (requires WebGL).

§ Visibility from observer

Set your observer location to see the next 7 days of passes ≥ 10°. The values pass through the URL so the page stays shareable.

No JS? Fill the form by hand. The geolocation button needs JavaScript.

§ Radio — SatNOGS DB

ModeDescriptionDownlinkUplink
FM S-band telemetry 2.242 GHz
BPSK S-band telemetry 2.230 GHz

2 transmitters · refreshed weekly from db.satnogs.org